THORAD DELTA 1 DEB, 8301

Orbit data source: Space-Track

THORAD DELTA 1 DEB, 8301 is space debris in SSO originally from a launch on Fri, 15 Nov 1974 UTC launched from the Air Force Western Test Range (AFWTR). Debris objects in space refer to the collection of defunct objects orbiting the Earth. Examples of debris include non-operational satellites, rocket bodies, and fragments generated from explosions, collisions, or faulty payload assembly.

Loading next visibility...
Identifier
8301, 1974-089BJ
Orbit
SSO
Country
Flag of USUS
Related business
Manufacturer
Unknown
Mission
Spacecraft
Bus & Motor
Unknown
Mass
Unknown
Launch date (UTC)
1974-11-15 (52 years ago)
Launch vehicle
Unknown
Launch site
Air Force Western Test Range (AFWTR)
Object type
Payload
Rocket body
Debris
Shape & HBR
Unknown shape, 0.1 m
Radar Cross Section
Medium (>0.1 m² and <1 m²)

Expand to show TLE details & history
Last TLE update: 14 hours ago

TLE from 14 hours ago
0 THORAD DELTA 1 DEB
1 08301U 74089BJ  26165.95825966  .00418401  00000-0  15021-1 0  9998
2 08301 102.9286 319.3881 0056277 327.7232  32.0545 15.25412711548733
Epoch: 2026-06-14T22:59Z
TLE epoch observation values (Epoch: 2026-06-14T22:59:53.634Z)
Latitude
-0.00008°
Longitude
71.16311°
Altitude
459.728 km
Speed
7.655 km/s
True Right ascension
21h 17m 33s
True Declination
0° 00' 00"
Sunlit
Object was in full shadow at epoch
Visualization orbit readout
Latitude
Unknown
Longitude
Unknown
Altitude
Unknown
Speed
Unknown
Apparent Right ascension
Unknown
Apparent Declination
Unknown
Sunlit
N/A
Visualization observer readout
Local Sidereal Time
00:00:03
Azimuth
Unknown
Elevation
Unknown
Doppler factor
Unknown
Orbital elements
Apogee altitude
525.46 km
Perigee altitude
448.192 km
Semi-major axis
6,864.963 km
Eccentricity
0.00563
Inclination
102.9286°
RAAN
319.3881°
Arg. of periapsis
327.7232°
True anomaly
32.39881°
Mean anomaly
32.0545°
Eccentric anomaly
32.22645°
Mean motion
3.8158 °/min
Orbital period
94.34 mins
BSTAR
0.015021
Loading maneuver chart data...
Computing Atmospheric mass density...

Documentation

Showing up to 5 results
|